sat.trackr.live / text

‹ back to catalog

STARLINK-30916

NORAD 58391 · 2023-178T

PAYLOAD ACTIVE UNKNOWN

§ Identity

Operator
Country
US
Launch date
2023-11-20
Launch site
AFWTR
Launch vehicle
Mass (kg)
RCS (m²)

Purposes: comms

External: N2YO · Heavens-Above · Gunter

§ Orbital elements

Epoch: 2026-05-25T00:08:47.719104Z

Period
93.85 min
Inclination
53.1609°
Eccentricity
0.0001164
Mean motion
15.34387753 rev/d
Perigee alt
461.9 km
Apogee alt
463.5 km
Semi-major
6,840.9 km
B*
2.8556e-5
RAAN
5.9345°
Arg perigee
97.6349°
Mean anomaly
262.4786°
Rev number
14,158

§ Raw data

STARLINK-309161 58391U 23178T   26145.00610786  .00000588  00000+0  28556-4 0  99932 58391  53.1609   5.9345 0001164  97.6349 262.4786 15.34387753141588

JSON: /api/v1/satellites/58391 · /tle

For live sub-satellite position, see the globe view (requires WebGL).

§ Visibility from observer

Set your observer location to see the next 7 days of passes ≥ 10°. The values pass through the URL so the page stays shareable.

No JS? Fill the form by hand. The geolocation button needs JavaScript.